TimeEST,TemperatureF,Dew PointF,Humidity,Sea Level PressureIn,VisibilityMPH,Wind Direction,Wind SpeedMPH,Gust SpeedMPH,PrecipitationIn,Events,Conditions,WindDirDegrees,DateUTC
12:54 AM,46.0,46.0,100,30.14,10.0,WNW,3.5,-,N/A,,Overcast,290,2013-01-15 05:54:00
1:54 AM,46.0,45.0,96,30.12,10.0,SSE,3.5,-,0.00,Rain,Light Rain,160,2013-01-15 06:54:00
2:23 AM,46.4,44.6,93,30.14,10.0,Calm,Calm,-,0.01,,Overcast,0,2013-01-15 07:23:00
2:54 AM,46.0,45.0,96,30.12,10.0,Calm,Calm,-,0.01,,Overcast,0,2013-01-15 07:54:00
3:38 AM,46.4,46.4,100,30.10,10.0,Calm,Calm,-,0.00,Rain,Light Rain,0,2013-01-15 08:38:00
3:54 AM,46.9,46.0,97,30.10,10.0,Calm,Calm,-,0.00,Rain,Light Rain,0,2013-01-15 08:54:00
4:54 AM,46.9,46.0,97,30.07,4.0,Calm,Calm,-,0.01,Rain,Light Rain,0,2013-01-15 09:54:00
5:05 AM,46.4,46.4,100,30.09,5.0,Calm,Calm,-,0.00,Rain,Light Rain,0,2013-01-15 10:05:00
5:24 AM,46.4,46.4,100,30.08,2.5,Calm,Calm,-,0.01,Rain,Light Rain,0,2013-01-15 10:24:00
5:34 AM,46.4,46.4,100,30.08,3.0,Calm,Calm,-,N/A,Rain,Light Rain,0,2013-01-15 10:34:00
5:54 AM,46.9,46.9,100,30.09,3.0,Calm,Calm,-,0.02,Rain,Light Rain,0,2013-01-15 10:54:00
6:15 AM,48.2,46.4,93,30.10,2.5,Calm,Calm,-,0.09,Rain,Heavy Rain,0,2013-01-15 11:15:00
6:23 AM,48.2,48.2,100,30.10,4.0,Calm,Calm,-,N/A,Rain,Rain,0,2013-01-15 11:23:00
6:34 AM,48.2,48.2,100,30.11,5.0,Calm,Calm,-,0.13,Rain,Rain,0,2013-01-15 11:34:00
6:54 AM,48.9,48.0,97,30.09,5.0,Calm,Calm,-,0.17,Rain,Rain,0,2013-01-15 11:54:00
7:02 AM,48.2,48.2,100,30.10,2.0,SE,4.6,-,0.02,Rain,Rain,130,2013-01-15 12:02:00
7:54 AM,51.1,50.0,96,30.11,2.0,SSE,4.6,-,0.07,Rain,Rain,160,2013-01-15 12:54:00
8:01 AM,51.8,51.8,100,30.13,5.0,South,6.9,-,0.02,Rain,Rain,170,2013-01-15 13:01:00
8:29 AM,51.8,51.8,100,30.12,8.0,SSE,8.1,-,0.05,Rain,Light Rain,160,2013-01-15 13:29:00
8:39 AM,51.8,51.8,100,30.13,10.0,SSE,9.2,-,0.06,Rain,Light Rain,160,2013-01-15 13:39:00
8:54 AM,52.0,51.1,97,30.12,5.0,SSE,8.1,-,0.08,Rain,Rain,160,2013-01-15 13:54:00
9:02 AM,51.8,51.8,100,30.13,3.0,South,9.2,-,0.02,Rain,Rain,170,2013-01-15 14:02:00
9:16 AM,51.8,51.8,100,30.12,3.0,SSE,6.9,-,0.04,Rain,Light Rain,160,2013-01-15 14:16:00
9:28 AM,51.8,51.8,100,30.12,3.0,South,9.2,-,0.04,Rain,Light Rain,170,2013-01-15 14:28:00
9:54 AM,53.1,52.0,96,30.11,3.0,South,9.2,-,0.06,Rain,Light Rain,170,2013-01-15 14:54:00
10:15 AM,53.6,51.8,94,30.13,5.0,SSE,6.9,-,0.01,Rain,Light Rain,160,2013-01-15 15:15:00
10:22 AM,53.6,51.8,94,30.13,5.0,SSE,9.2,-,0.01,Rain,Light Rain,160,2013-01-15 15:22:00
10:54 AM,53.1,52.0,96,30.12,9.0,South,4.6,-,0.04,Rain,Light Rain,170,2013-01-15 15:54:00
11:06 AM,53.6,51.8,94,30.13,2.5,SSE,8.1,-,0.00,Rain,Light Rain,160,2013-01-15 16:06:00
11:45 AM,51.8,51.8,100,30.11,2.5,SSE,6.9,-,0.03,Rain,Light Rain,160,2013-01-15 16:45:00
11:54 AM,52.0,51.1,97,30.09,2.5,South,8.1,-,0.04,Rain,Light Rain,170,2013-01-15 16:54:00
12:01 PM,51.8,51.8,100,30.10,1.5,SSE,9.2,-,0.00,Rain,Light Rain,160,2013-01-15 17:01:00
12:34 PM,51.8,51.8,100,30.09,1.5,SSE,8.1,-,0.04,Rain,Light Rain,160,2013-01-15 17:34:00
12:54 PM,51.1,50.0,96,30.06,1.5,SSE,9.2,-,0.04,Rain,Light Rain,160,2013-01-15 17:54:00
1:01 PM,51.8,50.0,94,30.08,4.0,SSE,8.1,-,0.00,Rain,Light Rain,160,2013-01-15 18:01:00
1:08 PM,51.8,50.0,94,30.08,1.5,SSE,6.9,-,0.01,Rain,Light Rain,160,2013-01-15 18:08:00
1:54 PM,51.1,48.9,92,30.04,1.5,SSE,8.1,-,0.03,Rain,Light Rain,150,2013-01-15 18:54:00
2:01 PM,51.8,48.2,88,30.06,2.0,South,9.2,-,0.01,Rain,Light Rain,170,2013-01-15 19:01:00
2:45 PM,51.8,48.2,88,30.05,2.0,SSE,11.5,-,0.02,Rain,Light Rain,160,2013-01-15 19:45:00
2:54 PM,50.0,48.9,96,30.04,2.0,SSE,10.4,-,0.02,Rain,Light Rain,150,2013-01-15 19:54:00
3:02 PM,50.0,48.2,94,30.06,2.0,SSE,6.9,16.1,N/A,Rain,Light Rain,160,2013-01-15 20:02:00
3:10 PM,50.0,48.2,94,30.05,2.0,SSE,6.9,-,0.01,Rain,Light Rain,160,2013-01-15 20:10:00
3:29 PM,50.0,48.2,94,30.05,2.0,SSE,8.1,-,0.02,Rain,Light Rain,160,2013-01-15 20:29:00
3:54 PM,50.0,48.9,96,30.04,2.0,South,10.4,-,0.05,Rain,Light Rain,170,2013-01-15 20:54:00
4:54 PM,48.9,48.0,97,30.04,2.0,South,9.2,-,0.05,Rain,Light Rain,170,2013-01-15 21:54:00
5:54 PM,48.0,46.9,96,30.05,2.0,SSE,10.4,-,0.10,Rain,Heavy Rain,160,2013-01-15 22:54:00
6:54 PM,46.9,46.0,97,30.06,2.0,SSE,8.1,-,0.10,Rain,Light Rain,160,2013-01-15 23:54:00
7:07 PM,46.4,46.4,100,30.07,2.0,South,8.1,-,0.01,Rain,Light Rain,170,2013-01-16 00:07:00
7:32 PM,46.4,46.4,100,30.07,2.0,South,8.1,-,0.04,Rain,Rain,170,2013-01-16 00:32:00
7:43 PM,46.4,46.4,100,30.06,2.0,South,8.1,-,0.07,Rain,Rain,180,2013-01-16 00:43:00
7:54 PM,46.0,46.0,100,30.04,2.0,South,8.1,-,0.08,Rain,Light Rain,170,2013-01-16 00:54:00
8:52 PM,46.4,44.6,93,30.04,2.0,SSE,6.9,-,0.08,Rain,Light Rain,160,2013-01-16 01:52:00
8:54 PM,46.0,45.0,96,30.03,2.0,South,8.1,-,0.08,Rain,Light Rain,170,2013-01-16 01:54:00
9:54 PM,45.0,45.0,100,30.03,2.0,South,6.9,-,0.06,Rain,Light Rain,170,2013-01-16 02:54:00
10:19 PM,44.6,44.6,100,30.04,2.0,South,5.8,-,0.02,Rain,Light Rain,170,2013-01-16 03:19:00
10:27 PM,44.6,44.6,100,30.04,2.0,South,6.9,-,0.02,Rain,Light Rain,180,2013-01-16 03:27:00
10:54 PM,45.0,44.1,97,30.03,2.0,South,3.5,-,0.03,Rain,Light Rain,180,2013-01-16 03:54:00
11:54 PM,45.0,44.1,97,30.01,2.0,South,5.8,-,0.05,Rain,Light Rain,170,2013-01-16 04:54:00